sat.trackr.live / text

‹ back to catalog

STARLINK-34235

NORAD 64760 · 2025-147F

PAYLOAD ACTIVE UNKNOWN

§ Identity

Operator
Country
US
Launch date
2025-07-08
Launch site
AFETR
Launch vehicle
Mass (kg)
RCS (m²)

Purposes: comms

External: N2YO · Heavens-Above · Gunter

§ Orbital elements

Epoch: 2026-09-20T21:38:18.814560Z

Period
93.85 min
Inclination
53.1579°
Eccentricity
0.0000954
Mean motion
15.34383721 rev/d
Perigee alt
462.1 km
Apogee alt
463.4 km
Semi-major
6,840.9 km
B*
7.1911e-4
RAAN
52.1809°
Arg perigee
60.2102°
Mean anomaly
299.8995°
Rev number
6,873

§ Raw data

STARLINK-342351 64760U 25147F   26263.90160665  .00023985  00000+0  71911-3 0  99922 64760  53.1579  52.1809 0000954  60.2102 299.8995 15.34383721 68731

JSON: /api/v1/satellites/64760 · /tle

For live sub-satellite position, see the globe view (requires WebGL).

§ Visibility from observer

Set your observer location to see the next 7 days of passes ≥ 10°. The values pass through the URL so the page stays shareable.

No JS? Fill the form by hand. The geolocation button needs JavaScript.